User: anonymous   Login
Location: Madden
(51.3728°N, 114.3297°W)
Time: 04:57:16
(UTC+00:00)
Language:

SPROUT - Orbit

View from above orbital plane
View from above orbital plane
View from above satellite
View from above satellite

Ground track
Ground track

The orbit data is extracted from the following two-line orbital elements,

1 39770U 14029E   24060.66911215  .00056850  00000-0  24459-2 0  9995
2 39770  98.0048 204.2804 0004471 214.5715 145.5230 15.22408684531029
Epoch (UTC): 29 February 2024 16:03:31
Eccentricity: 0.0004471
inclination: 98.0048°
perigee height: 495 km
apogee height: 501 km
right ascension of ascending node: 204.2804°
argument of perigee: 214.5715°
revolutions per day: 15.22408684
mean anomaly at epoch: 145.5230°
orbit number at epoch: 53102

The dashed part of the orbit path shows where the satellite is in the earth's shadow,  

DLR